(344252) = 2001 ST247

Discovered at Socorro on 2001-09-19 by LINEAR.

Orbit

Orbit type: Main Belt

Note: WebGL enabled browser required.

epoch2023-09-13.0
epoch JD2460200.5
perihelion date2023-05-25.54188
perihelion JD2460090.04188
argument of perihelion (°)190.71842
ascending node (°)166.78327
inclination (°)5.59378
eccentricity0.2420348
perihelion distance (AU)1.7901106
Tisserand w.r.t. Jupiter3.5
ΔV w.r.t. Earth (km/sec)8.5
semimajor axis (AU)2.3617320
mean anomaly (°)29.99546
mean daily motion (°/day)0.27155510
aphelion distance (AU)2.933
period (years)3.63
P-vector [x]0.99884702
P-vector [y]-0.03357284
P-vector [z]-0.03431469
Q-vector [x]0.04252012
Q-vector [y]0.95052766
Q-vector [z]0.30771611
absolute magnitude17.91
phase slope0.15
uncertainty0
referenceMPEC 2024-A141
observations used219
oppositions12
arc length (days)8149
first opposition used2001
last opposition used2024
residual rms (arc-secs)0.76
perturbers coarse indicatorM-v
perturbers precise indicator003Ek
first observation date used2001-09-19.0
last observation date used2024-01-11.0
computer nameMPCLINUX
JD of orbit computation2456731.527282
perihelion JD uncertainty (days)8.4375E-05
argument of perihelion uncertainty (°)6.8589E-05
ascending node uncertainty (°)6.2642E-05
inclination uncertainty (°)4.7732E-06
eccentricity uncertainty 5.7147E-08
perihelion distance uncertainty (AU)1.3361E-07
Minimum Orbit Intersection Distances (in AU)
for orbit epoch: 2460200.5, reference: E2024-AE1
Mercury1.42114
Venus1.06436
Earth0.7856
Mars0.39676
Jupiter2.50426
Saturn6.45235
Uranus15.5216
Neptune27.6448

Observations

224 total observations over interval: 2001 09 19.39187 – 2024 01 11.223485
These data are available for download (format description).

Date (UT) J2000 RA J2000 Dec Magn Location Ref
2001 09 19.39187 02 08 02.31 +07 37 05.1 19.9   704 – Lincoln Laboratory ETS, New Mexico MPS 36798
2001 09 19.40612 02 08 02.14 +07 36 58.8 20.4   704 – Lincoln Laboratory ETS, New Mexico MPS 36798
2001 09 19.42037 02 08 02.03 +07 36 52.9 19.8   704 – Lincoln Laboratory ETS, New Mexico MPS 36798
2001 09 19.43467 02 08 01.98 +07 36 47.5 20.3   704 – Lincoln Laboratory ETS, New Mexico MPS 36798
2001 09 19.44895 02 08 01.82 +07 36 40.9 19.9   704 – Lincoln Laboratory ETS, New Mexico MPS 36798
2001 09 21.41023 02 07 49.15 +07 22 16.0 19.2   704 – Lincoln Laboratory ETS, New Mexico MPS 36798
2001 09 21.42448 02 07 48.99 +07 22 09.7 19.5   704 – Lincoln Laboratory ETS, New Mexico MPS 36798
2001 09 21.43873 02 07 48.76 +07 22 03.3 19.4   704 – Lincoln Laboratory ETS, New Mexico MPS 36798
2001 09 21.45298 02 07 48.65 +07 21 56.6 19.7   704 – Lincoln Laboratory ETS, New Mexico MPS 36798
2001 09 21.46724 02 07 48.49 +07 21 49.9 19.9   704 – Lincoln Laboratory ETS, New Mexico MPS 36798
2001 10 10.39627 01 59 26.41 +04 37 27.2 19.4   644 – Palomar Mountain/NEAT MPS 38283
2001 10 10.41751 01 59 25.46 +04 37 15.3 19.9   644 – Palomar Mountain/NEAT MPS 38283
2001 10 10.43854 01 59 24.52 +04 37 03.6 19.9   644 – Palomar Mountain/NEAT MPS 38283
2001 10 16.40160 01 55 06.07 +03 43 10.2 19.8   644 – Palomar Mountain/NEAT MPS 44011
2001 10 16.42254 01 55 05.07 +03 42 59.2 19.2   644 – Palomar Mountain/NEAT MPS 44011
2001 10 16.44383 01 55 04.02 +03 42 47.8 19.4   644 – Palomar Mountain/NEAT MPS 44011
2001 10 24.35368 01 49 02.00 +02 37 46.0 19.7   644 – Palomar Mountain/NEAT MPS 40649
2001 10 24.37475 01 49 00.97 +02 37 36.8 19.7   644 – Palomar Mountain/NEAT MPS 40649
2001 10 24.39577 01 48 59.94 +02 37 27.2 19.6   644 – Palomar Mountain/NEAT MPS 40649
2001 11 11.279800 01 37 58.367 +01 03 43.36 20.01 V 645 – Apache Point-Sloan Digital Sky Survey MPS 79931
2001 11 11.283272 01 37 58.268 +01 03 42.79 20.74   645 – Apache Point-Sloan Digital Sky Survey MPS 79931
2001 11 12.244920 01 37 35.044 +01 01 15.90 20.04 V 645 – Apache Point-Sloan Digital Sky Survey MPS 79931
2001 11 12.248392 01 37 34.950 +01 01 15.41 20.79   645 – Apache Point-Sloan Digital Sky Survey MPS 79931
2008 05 31.44053 20 54 28.18 -09 57 51.8 21.8 V G96 – Mt. Lemmon Survey MPS 312968
2008 05 31.44706 20 54 28.44 -09 57 50.4 21.5 V G96 – Mt. Lemmon Survey MPS 312968
2008 05 31.45361 20 54 28.69 -09 57 48.2 21.4 V G96 – Mt. Lemmon Survey MPS 312968
2008 05 31.46020 20 54 28.98 -09 57 46.0 21.1 V G96 – Mt. Lemmon Survey MPS 312968
2008 07 29.32318 20 50 00.49 -10 10 02.7 19.4 V G96 – Mt. Lemmon Survey MPS 309227
2008 07 29.32824 20 50 00.24 -10 10 04.7 19.3 V G96 – Mt. Lemmon Survey MPS 309227
2008 07 29.33332 20 49 59.98 -10 10 06.5 19.3 V G96 – Mt. Lemmon Survey MPS 309227
2008 07 29.33843 20 49 59.73 -10 10 08.6 19.3 V G96 – Mt. Lemmon Survey MPS 309227
2008 09 24.12325 20 31 55.84 -16 27 48.2 20.5 V G96 – Mt. Lemmon Survey MPS 309227
2008 09 24.12840 20 31 56.02 -16 27 49.2 20.5 V G96 – Mt. Lemmon Survey MPS 309227
2008 09 24.13338 20 31 56.20 -16 27 50.1 20.5 V G96 – Mt. Lemmon Survey MPS 309227
2008 09 24.13846 20 31 56.35 -16 27 51.1 20.3 V G96 – Mt. Lemmon Survey MPS 309227
2008 10 21.12446 21 00 40.96 -16 44 03.5 21.0 V G96 – Mt. Lemmon Survey MPS 309227
2008 10 21.12945 21 00 41.40 -16 44 02.6 20.8 V G96 – Mt. Lemmon Survey MPS 309227
2008 10 21.13440 21 00 41.76 -16 44 02.1 21.2 V G96 – Mt. Lemmon Survey MPS 309227
2008 10 21.13932 21 00 42.22 -16 44 01.2 20.8 V G96 – Mt. Lemmon Survey MPS 309227
2010 02 15.27907 09 14 23.10 +11 56 56.5 21.6 V G96 – Mt. Lemmon Survey MPS 312968
2010 02 15.28563 09 14 22.63 +11 56 59.3 21.7 V G96 – Mt. Lemmon Survey MPS 312968
2010 02 15.29223 09 14 22.27 +11 57 01.5 21.4 V G96 – Mt. Lemmon Survey MPS 312968
2010 02 15.29883 09 14 21.87 +11 57 04.6 20.7 V G96 – Mt. Lemmon Survey MPS 312968
2012 10 21.553430 04 04 39.863 +11 33 37.30 20.2 w F51 – Pan-STARRS 1, Haleakala MPS 437840
2012 10 21.569493 04 04 39.409 +11 33 31.80 21.7 w F51 – Pan-STARRS 1, Haleakala MPS 437840
2012 10 21.601684 04 04 38.319 +11 33 19.04 20.1 w F51 – Pan-STARRS 1, Haleakala MPS 437840
2012 11 07.371207 03 52 22.753 +09 50 43.87 19.9 w F51 – Pan-STARRS 1, Haleakala MPS 439432
2012 11 07.386385 03 52 21.859 +09 50 38.87 19.8 w F51 – Pan-STARRS 1, Haleakala MPS 439432
2012 11 07.401548 03 52 20.958 +09 50 33.83 19.8 w F51 – Pan-STARRS 1, Haleakala MPS 439432
2012 11 07.416652 03 52 20.076 +09 50 28.69 19.8 w F51 – Pan-STARRS 1, Haleakala MPS 439432
2012 11 08.387910 03 51 25.600 +09 45 03.90 20.1 g F51 – Pan-STARRS 1, Haleakala MPS 439432
2012 11 08.400280 03 51 24.860 +09 44 59.96 20.1 g F51 – Pan-STARRS 1, Haleakala MPS 439432
2012 11 08.516021 03 51 17.905 +09 44 21.64 19.7 r F51 – Pan-STARRS 1, Haleakala MPS 439432
2012 11 08.527664 03 51 17.203 +09 44 17.76 19.5 r F51 – Pan-STARRS 1, Haleakala MPS 439432
2012 12 10.25893 03 23 43.994 +08 16 57.10 20.6 w F51 – Pan-STARRS 1, Haleakala MPS 447710
2012 12 10.27445 03 23 43.430 +08 16 57.61 20.4 w F51 – Pan-STARRS 1, Haleakala MPS 447710
2012 12 10.28992 03 23 42.880 +08 16 58.17 20.5 w F51 – Pan-STARRS 1, Haleakala MPS 447710
2012 12 10.31553 03 23 41.953 +08 16 59.09 20.5 w F51 – Pan-STARRS 1, Haleakala MPS 447710
2013 01 17.25051 03 26 07.83 +10 39 49.1 20.3 V G96 – Mt. Lemmon Survey MPS 452250
2013 01 17.25793 03 26 08.12 +10 39 51.0 21.2 V G96 – Mt. Lemmon Survey MPS 452250
2013 01 17.26537 03 26 08.34 +10 39 52.6 21.7 V G96 – Mt. Lemmon Survey MPS 452250
2013 01 17.27279 03 26 08.66 +10 39 56.2 20.9 V G96 – Mt. Lemmon Survey MPS 452250
2014 02 27.35517 11 28 47.09 +03 24 19.7 21.7 V G96 – Mt. Lemmon Survey MPS 503911
2014 02 27.36238 11 28 46.71 +03 24 23.7 21.6 V G96 – Mt. Lemmon Survey MPS 503911
2014 02 27.37056 11 28 46.23 +03 24 26.7 21.5 V G96 – Mt. Lemmon Survey MPS 503911
2014 02 27.37780 11 28 45.92 +03 24 29.8 21.3 V G96 – Mt. Lemmon Survey MPS 503911
2015 06 26.38260 17 08 22.169 -12 58 35.34 20.4 i F51 – Pan-STARRS 1, Haleakala MPS 614565
2015 06 26.41174 17 08 20.375 -12 58 35.76 20.5 i F51 – Pan-STARRS 1, Haleakala MPS 614565
2015 06 26.42636 17 08 19.478 -12 58 35.81 20.5 i F51 – Pan-STARRS 1, Haleakala MPS 614565
2015 07 14.35772 16 54 05.657 -13 20 49.30 21.0 w F51 – Pan-STARRS 1, Haleakala MPS 615855
2015 07 14.37001 16 54 05.199 -13 20 50.90 21.3 w F51 – Pan-STARRS 1, Haleakala MPS 615855
2015 07 14.38223 16 54 04.764 -13 20 52.55 21.3 w F51 – Pan-STARRS 1, Haleakala MPS 615855
2015 08 10.28089 16 51 16.012 -14 57 10.51 21.5 w F51 – Pan-STARRS 1, Haleakala MPS 620996
2015 08 10.29280 16 51 16.228 -14 57 13.77 21.5 w F51 – Pan-STARRS 1, Haleakala MPS 620996
2015 08 10.30472 16 51 16.463 -14 57 17.10 21.5 w F51 – Pan-STARRS 1, Haleakala MPS 620996
2015 08 10.31662 16 51 16.682 -14 57 20.35 21.5 w F51 – Pan-STARRS 1, Haleakala MPS 620996
2016 11 10.57284 08 09 29.575 +13 18 53.55 22.0 w F51 – Pan-STARRS 1, Haleakala MPS 744862
2016 11 10.58457 08 09 29.859 +13 18 51.39 22.2 w F51 – Pan-STARRS 1, Haleakala MPS 744862
2016 11 10.59620 08 09 30.148 +13 18 48.74 22.1 w F51 – Pan-STARRS 1, Haleakala MPS 744862
2016 11 10.60777 08 09 30.428 +13 18 46.73 22.1 w F51 – Pan-STARRS 1, Haleakala MPS 744862
2017 01 05.29270 07 47 06.91 +13 27 42.3 20.8 V G96 – Mt. Lemmon Survey MPS 758848
2017 01 05.29935 07 47 06.48 +13 27 44.9 21.1 V G96 – Mt. Lemmon Survey MPS 758848
2017 01 05.30369 07 47 06.23 +13 27 44.8 20.3 V G96 – Mt. Lemmon Survey MPS 758848
2017 01 05.30803 07 47 05.87 +13 27 47.6 20.6 V G96 – Mt. Lemmon Survey MPS 758848
2018 04 13.41638 13 04 18.135 -02 00 34.81 22.0 w F51 – Pan-STARRS 1, Haleakala MPS 884131
2018 04 13.42838 13 04 17.458 -02 00 30.09 21.8 w F51 – Pan-STARRS 1, Haleakala MPS 884131
2018 04 13.44037 13 04 16.796 -02 00 24.96 21.7 w F51 – Pan-STARRS 1, Haleakala MPS 884131
2018 04 13.45235 13 04 16.144 -02 00 20.27 21.6 w F51 – Pan-STARRS 1, Haleakala MPS 884131
2019 07 07.56543 22 56 30.389 -01 48 30.65 20.6 w F51 – Pan-STARRS 1, Haleakala MPS 1011164
2019 07 07.57737 22 56 30.944 -01 48 28.09 20.6 w F51 – Pan-STARRS 1, Haleakala MPS 1011164
2019 07 07.58932 22 56 31.502 -01 48 25.38 20.6 w F51 – Pan-STARRS 1, Haleakala MPS 1011164
